Temperature
20 19 20 20 20 20 20 20 20 20 20 20 19 19 19 19 19 19 19 18 18 18 18 18 18 18 18 18 18 18 18 18 18 18 18 18 17 17 17 17 17 17 17
20 19 20 20 20 20 20 20 20 20 20 20 19 19 19 19 19 19 19 18 18 18 18 18 18 18 18 18 18 18 18 18 18 18 18 17 17 17 17 17 17 17 17
20 19 20 20 20 20 20 20 20 20 20 20 19 19 19 19 19 19 19 19 18 18 18 18 18 18 18 18 18 18 18 18 18 18 17 17 17 17 17 17 17 17 17
20 19 19 20 20 20 20 20 20 20 20 20 19 19 19 19 19 19 19 18 18 18 18 18 18 18 18 18 18 18 17 17 17 17 18 17 17 17 17 17 17 17 17
19 19 19 20 19 19 19 20 20 20 20 20 19 19 19 19 19 19 19 18 18 18 18 18 18 18 18 18 18 17 17 17 17 17 17 17 17 17 17 17 17 17 17
19 19 19 20 19 19 19 19 20 20 20 19 19 19 19 19 19 19 19 18 18 18 18 18 18 18 18 18 17 17 17 17 17 17 17 17 17 17 17 17 17 17 17
20 19 19 19 19 19 19 19 19 19 19 19 19 19 19 19 19 19 19 18 18 18 18 18 18 18 18 18 18 17 17 17 17 17 17 17 17 17 17 17 17 17 17
20 19 19 19 19 19 19 19 19 19 19 19 19 19 19 19 18 18 18 18 18 18 18 18 18 18 18 18 18 18 17 17 17 17 17 17 17 17 17 17 17 17 17
20 19 18 18 19 19 19 19 19 19 19 19 19 19 19 18 18 18 18 18 18 18 18 18 18 18 18 18 18 18 18 18 17 17 17 17 17 17 17 17 17 17 17
19 19 19 19 18 18 18 19 19 19 19 19 19 19 18 18 18 18 18 18 18 18 18 18 18 18 18 18 18 18 18 18 18 18 18 17 18 17 17 17 17 17 17
19 19 19 19 18 18 18 18 18 19 19 18 18 18 18 17 17 17 17 18 18 18 18 18 18 18 18 18 18 18 18 17 18 18 17 17 18 17 17 17 17 17 17
18 18 18 18 18 18 18 18 18 18 18 18 17 17 17 17 17 17 17 17 17 17 17 17 17 17 17 17 17 17 17 18 18 18 17 17 18 18 17 17 17 17 17
18 18 18 18 18 18 18 18 18 18 18 17 17 17 17 17 17 17 17 17 17 17 17 17 17 17 17 17 17 17 17 17 18 18 18 17 17 17 17 17 17 17 17
18 18 18 18 18 18 18 18 18 18 18 17 17 17 17 17 17 17 17 17 17 17 17 17 17 16 16 16 16 17 17 17 17 17 17 17 17 17 17 17 17 17 17
18 18 18 18 18 18 18 18 18 18 18 17 17 17 17 17 17 17 17 17 17 16 16 16 16 16 16 16 16 16 16 16 17 17 17 17 17 17 17 17 17 17 17
18 18 18 18 18 18 18 18 18 18 18 17 17 17 17 17 17 16 16 16 16 16 16 16 16 16 16 16 16 16 16 16 16 16 16 17 17 17 17 17 17 17 17
18 18 18 18 18 18 18 18 18 17 17 17 17 17 17 16 16 16 16 16 16 16 16 16 15 15 15 16 15 15 16 16 16 16 16 16 16 17 17 17 17 16 16
18 18 18 18 18 18 18 18 17 17 17 17 17 16 16 16 16 16 16 16 15 15 15 15 15 15 15 15 15 15 16 15 15 16 16 16 16 16 16 16 16 16 16
18 18 18 18 18 18 18 18 17 17 17 17 16 16 16 16 16 15 15 15 15 15 15 15 15 15 15 15 15 15 15 15 15 16 15 16 16 16 16 16 16 16 16
18 18 18 18 18 18 18 17 17 17 17 16 16 16 16 15 15 15 15 15 15 15 15 14 14 14 14 15 16 15 15 15 15 15 16 16 16 16 16 16 16 16 16
18 18 18 18 18 18 17 17 17 17 16 16 16 16 15 15 15 15 15 15 14 14 14 14 14 14 15 14 15 16 16 15 15 15 15 15 15 15 15 15 15 16 16
18 18 18 18 18 18 17 17 17 17 16 16 16 16 15 15 15 15 14 14 14 14 14 14 14 14 14 14 15 16 17 16 15 15 15 15 15 15 15 15 15 15 15
18 18 18 18 18 18 17 17 17 17 16 16 16 15 15 15 15 14 14 14 14 14 14 13 13 13 14 14 14 15 17 17 16 16 14 14 14 15 15 15 15 15 15
18 18 18 18 18 18 17 17 17 17 16 16 16 15 15 15 14 14 14 14 14 14 14 14 13 13 13 15 14 14 14 14 15 16 16 15 14 14 14 15 15 15 15
18 18 18 18 18 18 17 17 17 16 16 16 16 15 15 15 14 14 14 14 14 14 13 13 13 13 13 14 14 14 14 14 14 15 16 15 15 15 14 14 14 14 14
18 18 18 18 18 18 18 17 17 16 16 16 16 15 15 15 14 14 14 14 14 13 13 13 13 13 13 13 13 14 14 14 15 15 15 15 15 15 14 14 14 14 14
Wind_Speed
15 18 19 17 17 17 17 17 17 17 16 16 15 15 14 13 12 11 11 10 10 11 11 11 11 11 11 11 12 12 11 12 12 12 13 13 13 13 12 11 11 15 15
18 21 20 18 17 17 17 17 17 16 16 16 15 14 14 13 12 11 10 10 10 10 11 11 11 11 11 11 11 11 11 11 11 12 12 13 13 11 10 8 9 15 14
20 21 21 18 18 17 17 17 17 16 16 15 15 14 13 12 12 11 10 10 10 10 11 11 11 10 11 11 11 10 10 10 10 8 8 11 13 11 10 12 14 14 13
21 22 21 20 18 18 17 17 16 16 16 15 14 13 12 12 11 11 10 9 9 10 10 10 10 10 10 10 10 9 9 9 7 6 6 9 11 12 11 12 13 13 12
19 20 21 20 18 18 17 16 16 16 15 14 14 13 12 11 11 10 10 9 9 9 9 9 10 9 9 9 9 8 8 7 4 5 7 8 10 11 10 11 11 12 12
19 20 22 20 19 18 17 16 16 15 15 14 13 12 11 10 10 10 9 8 9 9 9 9 9 8 8 8 7 7 6 4 7 5 6 7 10 10 10 10 11 11 11
19 19 22 19 19 18 17 16 15 15 14 13 12 11 10 10 10 9 9 8 8 8 8 8 8 7 7 7 6 5 4 2 2 5 5 6 10 10 9 9 9 10 10
19 19 21 19 17 17 16 15 14 14 13 12 11 10 9 9 8 8 8 7 7 6 6 6 6 6 5 5 5 4 2 5 2 4 4 6 11 8 8 8 9 9 9
17 17 18 19 17 15 15 14 14 13 13 12 11 10 9 8 7 7 6 6 6 6 5 5 5 5 4 4 3 3 1 5 4 3 4 6 10 7 7 7 8 8 8
15 15 16 17 16 16 15 14 13 12 12 11 10 9 8 7 7 6 7 6 5 5 5 5 4 4 3 3 2 2 2 6 4 3 3 8 10 8 7 8 8 8 8
14 13 14 15 14 14 14 14 13 12 11 11 10 9 8 7 7 7 5 7 4 4 4 4 4 3 3 4 3 2 5 6 3 1 2 10 9 8 8 9 9 9 9
15 14 12 12 12 12 11 12 10 11 11 9 8 8 6 4 2 3 8 4 3 3 4 4 3 4 6 4 6 6 5 5 4 3 4 9 7 8 9 9 10 11 10
15 14 13 11 11 11 8 9 7 7 8 7 7 6 4 4 3 2 3 4 4 4 3 3 4 4 4 3 4 4 4 4 4 3 4 7 6 8 9 10 11 12 12
15 14 13 12 10 9 8 7 7 6 6 6 6 5 5 3 2 1 1 1 2 1 1 2 2 3 4 4 5 5 4 5 4 3 3 5 5 7 9 10 12 13 13
14 13 12 11 10 9 7 6 6 5 5 6 5 4 3 3 2 2 1 0 1 1 2 2 2 2 4 4 4 4 4 4 5 5 3 5 5 6 7 9 12 14 14
13 13 12 11 10 9 7 5 5 5 4 5 5 5 3 3 2 2 2 0 1 1 1 1 1 2 3 3 4 4 4 4 4 5 6 5 7 7 7 8 11 12 14
13 12 12 11 10 9 8 7 6 6 6 5 5 6 4 3 3 1 1 0 1 0 1 1 1 2 3 3 3 3 3 4 3 4 5 5 5 8 9 9 11 11 13
12 12 12 11 11 9 7 6 6 5 5 5 6 6 5 4 3 1 1 1 1 0 0 0 1 2 1 2 2 2 2 2 3 4 4 4 5 5 8 9 9 11 13
12 12 12 10 10 10 8 7 6 6 5 6 5 5 6 5 4 2 2 3 1 1 1 1 1 2 1 2 2 2 2 2 2 2 3 3 3 4 5 6 8 9 11
11 11 11 10 9 9 8 7 6 6 6 6 5 6 6 5 4 2 3 3 1 2 2 2 2 2 3 3 5 2 2 2 2 1 2 2 2 4 5 4 6 8 11
11 11 12 11 10 9 8 8 7 7 6 6 6 7 6 5 5 2 3 3 1 2 2 1 2 0 2 3 4 3 2 2 0 1 1 1 1 2 3 4 5 5 6
13 13 12 11 11 11 8 7 6 6 6 6 5 7 6 6 5 4 2 2 2 2 2 1 1 2 2 2 4 4 2 3 3 1 0 0 2 2 2 3 3 4 6
13 14 12 12 12 11 10 8 7 6 6 6 6 6 6 6 5 3 3 1 2 1 2 1 1 2 2 1 3 4 3 2 1 2 0 1 1 2 2 2 3 3 5
14 14 13 12 12 11 11 10 10 8 7 7 6 6 7 7 6 5 4 3 2 1 2 1 2 1 2 2 1 1 3 4 4 1 3 2 1 1 2 3 3 2 3
14 13 13 12 12 11 11 10 10 8 7 6 6 7 7 6 6 6 6 4 3 2 1 1 1 2 2 3 2 1 1 1 4 5 4 3 3 2 2 3 3 3 3
14 13 13 13 13 12 12 12 11 9 8 7 7 7 7 6 6 7 7 5 5 3 3 3 2 2 1 2 3 3 3 3 3 4 5 5 5 4 4 4 5 4 4
Wind_Direction
158 148 145 149 144 140 138 135 134 134 134 133 131 129 127 125 122 118 113 108 103 99 97 97 96 96 95 95 96 97 98 100 103 105 106 105 106 108 111 121 130 110 112
152 147 147 149 146 143 139 136 134 133 132 132 130 127 126 124 121 117 112 107 103 100 98 97 96 95 95 95 97 99 101 104 107 110 117 114 107 108 107 93 78 106 115
150 147 152 151 148 144 141 138 136 134 133 132 130 128 126 123 120 115 109 106 105 102 99 97 96 95 95 96 96 97 100 103 109 126 156 126 114 109 105 98 99 111 115
151 151 155 150 150 147 143 141 139 136 134 133 132 130 127 123 120 116 111 108 105 103 100 99 97 94 94 93 93 94 97 101 119 187 149 113 117 113 114 111 113 116 117
150 150 148 153 152 149 146 144 142 139 137 135 133 132 129 125 119 114 110 108 105 105 103 101 98 96 93 91 90 93 99 108 165 222 95 104 108 116 121 119 119 119 120
151 153 150 157 153 151 150 148 144 142 140 138 135 132 130 127 122 117 113 109 107 106 104 103 101 99 97 91 87 88 101 140 222 115 110 119 115 125 128 127 126 125 124
156 154 151 158 155 154 153 151 147 144 142 140 137 133 130 129 127 123 118 111 109 108 108 106 105 101 96 88 82 80 93 246 268 103 119 109 108 128 137 135 132 131 130
156 155 149 157 157 156 155 154 152 149 145 144 142 138 135 133 129 128 124 119 113 110 108 108 107 103 94 86 76 76 82 280 182 117 118 109 113 139 147 145 141 139 138
158 154 154 161 161 158 157 156 154 150 148 147 146 143 141 141 135 133 132 131 129 123 120 117 113 109 100 88 75 73 137 286 279 123 137 123 132 154 159 157 156 154 151
160 160 160 164 163 166 165 161 157 153 152 150 150 150 149 152 154 151 163 137 134 136 140 139 132 124 116 100 84 94 208 251 248 161 146 126 144 173 177 175 173 172 168
164 164 166 163 166 171 169 160 162 160 159 162 163 160 179 180 165 169 129 122 140 144 150 157 161 160 180 170 163 199 237 248 228 182 130 118 159 186 194 192 188 185 183
167 169 168 167 166 174 169 159 171 172 164 178 161 169 183 158 159 148 119 140 157 166 169 169 192 215 240 219 186 212 242 248 258 211 135 134 176 200 207 205 201 194 193
169 171 170 169 169 175 166 166 170 166 159 170 161 164 161 164 167 178 167 167 179 194 199 173 211 246 258 278 277 250 267 269 259 245 134 141 193 211 214 212 210 204 201
171 173 171 169 172 176 172 168 169 167 166 163 154 174 164 163 170 168 181 182 192 192 189 236 239 260 273 269 267 270 258 259 261 263 136 147 208 221 221 219 214 211 208
173 174 172 172 170 171 170 183 168 166 165 150 147 157 161 167 169 151 118 292 271 230 195 225 247 249 261 258 260 256 265 266 266 264 209 166 209 226 228 224 218 216 212
174 174 171 175 172 171 169 172 158 159 155 150 154 149 158 146 129 144 171 193 290 299 1 271 267 258 261 269 263 257 253 254 247 265 270 205 197 217 227 228 224 218 215
175 177 175 175 173 173 172 173 161 165 165 159 145 138 137 124 119 141 129 177 26 343 213 248 260 256 251 246 252 255 244 256 265 261 266 267 230 208 214 224 227 223 220
177 178 178 178 172 171 169 167 159 167 158 153 148 140 132 115 120 138 112 76 57 280 242 221 270 271 273 273 269 278 270 246 262 265 259 247 254 250 210 206 225 226 225
179 176 174 174 170 166 161 156 155 151 152 151 150 143 138 136 135 128 88 82 143 82 48 321 48 324 321 319 286 259 283 274 270 259 270 267 257 262 258 191 211 226 230
178 173 170 170 165 157 155 151 152 151 154 152 147 136 144 143 137 125 119 105 83 74 64 49 41 17 330 325 304 303 283 277 264 273 266 247 249 254 256 256 227 217 219
176 173 174 171 166 166 166 165 164 163 160 154 152 145 148 140 137 135 113 122 94 75 42 24 344 337 338 337 297 274 228 218 229 225 299 300 274 271 259 253 261 268 228
183 181 178 176 175 176 166 162 165 156 160 158 159 151 157 154 156 153 131 148 116 117 111 58 351 333 9 357 320 297 253 188 196 130 224 24 344 298 267 251 251 254 266
186 184 182 180 178 174 162 163 155 152 166 169 171 169 170 169 170 158 163 154 148 186 109 96 359 349 342 2 357 323 309 328 270 167 150 18 342 325 296 275 247 252 257
185 182 179 176 175 170 170 176 174 181 182 179 181 171 172 180 179 176 178 172 188 154 134 193 79 333 311 329 66 357 344 346 307 272 203 175 216 291 329 304 288 264 266
180 178 174 173 174 176 181 180 187 191 184 177 178 167 183 179 186 187 185 180 186 194 155 83 130 305 309 325 330 321 314 253 270 292 296 299 273 265 299 286 293 291 297
178 176 172 173 178 181 184 186 195 190 188 184 186 182 193 187 189 189 190 191 198 192 179 194 210 213 304 335 315 310 301 302 303 299 293 286 293 289 298 294 275 277 282
Height
1537 1539 1540 1543 1546 1548 1550 1552 1554 1555 1556 1557 1558 1559 1560 1561 1561 1562 1562 1563 1564 1564 1565 1565 1565 1566 1566 1566 1567 1567 1567 1568 1568 1568 1569 1569 1570 1571 1571 1572 1573 1574 1573
1535 1538 1540 1544 1547 1549 1551 1553 1555 1557 1558 1559 1560 1561 1562 1562 1563 1564 1564 1565 1566 1566 1566 1567 1567 1568 1568 1568 1569 1569 1569 1570 1570 1571 1571 1572 1572 1573 1574 1574 1575 1576 1576
1535 1538 1541 1544 1548 1550 1553 1555 1556 1558 1559 1560 1561 1562 1563 1564 1565 1565 1566 1567 1567 1568 1568 1569 1569 1570 1570 1570 1571 1571 1572 1572 1572 1573 1574 1576 1575 1575 1576 1576 1577 1577 1578
1536 1539 1542 1545 1549 1551 1554 1556 1558 1559 1561 1562 1563 1564 1565 1566 1566 1567 1568 1568 1569 1570 1570 1571 1571 1571 1572 1572 1573 1573 1574 1574 1575 1576 1579 1580 1579 1577 1578 1579 1579 1580 1580
1537 1540 1543 1546 1550 1553 1555 1557 1559 1560 1562 1563 1564 1565 1566 1567 1568 1569 1569 1570 1571 1571 1572 1572 1573 1573 1574 1574 1575 1575 1576 1576 1577 1579 1581 1581 1580 1579 1580 1581 1581 1582 1582
1537 1541 1544 1547 1551 1554 1556 1558 1560 1562 1563 1564 1565 1567 1568 1569 1569 1570 1571 1571 1572 1573 1573 1574 1575 1575 1576 1576 1577 1577 1578 1579 1580 1582 1582 1583 1582 1581 1582 1582 1583 1584 1584
1539 1543 1545 1549 1552 1555 1557 1559 1561 1562 1564 1565 1567 1568 1569 1570 1571 1571 1572 1573 1574 1574 1575 1575 1576 1577 1577 1578 1579 1579 1580 1580 1583 1584 1584 1585 1583 1582 1583 1584 1585 1585 1586
1541 1545 1546 1550 1553 1556 1558 1560 1562 1564 1565 1566 1568 1569 1570 1571 1572 1573 1573 1574 1575 1576 1576 1577 1577 1578 1579 1579 1580 1580 1581 1581 1584 1585 1585 1585 1583 1584 1584 1585 1586 1587 1588
1542 1546 1548 1551 1554 1556 1559 1561 1563 1564 1566 1567 1568 1570 1571 1572 1573 1574 1574 1575 1576 1576 1577 1578 1578 1579 1580 1580 1581 1581 1582 1583 1585 1586 1587 1586 1585 1585 1585 1586 1587 1588 1589
1543 1546 1549 1553 1555 1557 1559 1561 1563 1565 1566 1568 1569 1570 1571 1573 1574 1574 1576 1576 1577 1577 1578 1578 1579 1580 1580 1581 1581 1582 1583 1584 1586 1587 1587 1586 1585 1586 1586 1587 1588 1589 1589
1543 1546 1550 1553 1555 1558 1561 1562 1563 1565 1566 1568 1570 1571 1572 1574 1575 1576 1576 1576 1577 1578 1578 1579 1579 1580 1581 1581 1582 1582 1583 1585 1587 1587 1587 1586 1586 1586 1587 1588 1588 1589 1590
1542 1546 1549 1553 1555 1558 1561 1562 1564 1566 1567 1569 1571 1572 1574 1575 1576 1576 1576 1576 1577 1578 1578 1579 1579 1580 1581 1582 1582 1582 1584 1585 1586 1586 1586 1585 1586 1586 1587 1588 1588 1589 1590
1541 1545 1549 1552 1554 1558 1560 1562 1564 1567 1567 1569 1570 1571 1573 1574 1575 1576 1577 1577 1577 1578 1579 1578 1579 1580 1581 1581 1582 1583 1583 1584 1585 1586 1585 1584 1585 1586 1586 1587 1588 1589 1590
1541 1544 1548 1551 1553 1556 1560 1562 1564 1566 1567 1569 1569 1571 1573 1574 1575 1575 1576 1576 1577 1577 1577 1578 1578 1579 1579 1579 1580 1581 1582 1582 1583 1584 1583 1583 1584 1584 1585 1586 1587 1588 1589
1540 1544 1547 1550 1553 1555 1558 1561 1563 1565 1567 1568 1569 1570 1571 1573 1574 1575 1575 1575 1576 1576 1577 1576 1577 1577 1577 1578 1578 1579 1579 1580 1581 1582 1582 1581 1582 1583 1584 1584 1586 1587 1588
1539 1543 1546 1549 1552 1555 1557 1560 1562 1565 1566 1568 1568 1569 1571 1573 1573 1574 1574 1574 1575 1575 1575 1575 1576 1576 1576 1576 1577 1577 1577 1578 1578 1578 1580 1580 1580 1581 1582 1583 1583 1584 1586
1538 1542 1545 1548 1551 1554 1557 1559 1562 1564 1565 1567 1568 1569 1570 1572 1572 1573 1574 1573 1574 1574 1573 1574 1574 1575 1575 1575 1575 1575 1576 1576 1576 1576 1577 1578 1578 1579 1579 1580 1581 1582 1583
1537 1541 1544 1547 1550 1553 1556 1559 1561 1564 1565 1567 1568 1569 1570 1571 1571 1572 1573 1573 1572 1573 1573 1573 1573 1574 1574 1574 1574 1574 1574 1574 1574 1574 1575 1575 1576 1577 1578 1578 1579 1580 1581
1536 1539 1543 1546 1549 1552 1555 1558 1560 1562 1564 1566 1567 1569 1569 1570 1570 1572 1572 1571 1572 1572 1572 1573 1573 1573 1574 1573 1573 1573 1573 1573 1573 1573 1573 1574 1574 1574 1576 1575 1576 1577 1578
1534 1538 1541 1545 1548 1551 1554 1556 1559 1561 1563 1565 1567 1568 1568 1569 1570 1571 1571 1570 1572 1572 1572 1572 1572 1572 1572 1572 1572 1572 1572 1572 1572 1572 1572 1572 1572 1573 1573 1574 1574 1575 1575
1533 1536 1540 1543 1546 1549 1553 1556 1558 1560 1562 1564 1566 1567 1568 1569 1569 1570 1572 1570 1571 1572 1571 1572 1572 1572 1572 1571 1572 1571 1571 1571 1571 1570 1571 1571 1571 1571 1571 1571 1572 1573 1573
1531 1535 1538 1542 1545 1548 1551 1554 1557 1559 1561 1563 1565 1566 1567 1568 1568 1570 1570 1571 1571 1570 1570 1571 1571 1572 1572 1571 1571 1570 1570 1571 1570 1570 1570 1570 1570 1570 1570 1570 1570 1570 1571
1529 1532 1536 1540 1543 1546 1549 1553 1555 1557 1560 1562 1564 1565 1566 1567 1568 1568 1569 1570 1570 1571 1571 1570 1570 1571 1571 1571 1570 1571 1569 1568 1569 1569 1569 1568 1568 1568 1568 1568 1568 1568 1568
1528 1531 1535 1538 1541 1545 1548 1551 1554 1556 1559 1561 1563 1564 1564 1565 1566 1567 1568 1568 1569 1570 1569 1570 1570 1570 1570 1571 1570 1569 1570 1569 1569 1568 1569 1568 1567 1567 1567 1567 1567 1567 1566
1526 1530 1533 1536 1539 1543 1546 1549 1552 1555 1558 1560 1561 1562 1563 1564 1564 1566 1566 1567 1567 1569 1568 1568 1568 1568 1569 1569 1570 1569 1569 1568 1568 1569 1567 1568 1567 1567 1566 1565 1565 1565 1565
1524 1528 1531 1534 1537 1540 1544 1547 1550 1553 1555 1557 1559 1560 1561 1562 1563 1564 1565 1565 1566 1567 1567 1567 1567 1567 1567 1567 1567 1568 1568 1568 1568 1567 1566 1566 1565 1565 1564 1563 1563 1563 1563